Weather History for Elko, NV

Change the Weather History Date:

Thursday, January 17, 2013

  Actual Average Record
Temperature  
Mean Temperature 5 °F 25 °F  
Max Temperature 16 °F 36 °F 60 °F (1899)
Min Temperature -6 °F 14 °F -27 °F (1917)
Degree Days  
Heating Degree Days 60 40  
Month to date heating degree days 954 680  
Since 1 July heating degree days 3402 3628  
Cooling Degree Days 0 0  
Month to date cooling degree days 0 0  
Year to date cooling degree days 0 0  
Moisture  
Dew Point -3 °F    
Average Humidity 82    
Maximum Humidity 96    
Minimum Humidity 67    
Precipitation  
Precipitation T in 0.03 in 0.67 in (1953)
Month to date precipitation 0.22 0.66  
Year to date precipitation 0.22 0.66  
Snow  
Snow T in 0.30 in 3.50 in (1895)
Month to date snowfall 3.1 6.1  
Since 1 July snowfall 27.0 21.7  
Snow Depth 8.00 in    
Sea Level Pressure  
Sea Level Pressure 30.74 in    
Wind  
Wind Speed 4 mph (East)    
Max Wind Speed 8 mph    
Max Gust Speed 9 mph    
Visibility 6 miles    
Events      
T = Trace of Precipitation, MM = Missing Value Source: NWS Daily Summary

Daily Weather History Graph

Daily Weather History Graph

Search for Another Location

Airport:

Trip Planner

Search our weather history database for the weather conditions in past years. The results will help you decide how hot, cold, wet, or windy it might be!

Date:

Astronomy

Jan. 17, 2013 Rise Set
Actual Time 7:04 AM PST 4:42 PM PST
Civil Twilight 6:34 AM PST 5:12 PM PST
Nautical Twilight 6:00 AM PST 5:46 PM PST
Astronomical Twilight 5:27 AM PST 6:19 PM PST
Moon 10:10 AM PST (1/17) 11:41 PM PST (1/17)
Length of Visible Light 10h 38m
Length of Day
9h 38m
Waxing Crescent, 39% of the Moon is Illuminated
Jan 17
Waxing Crescent
Jan 18
First Quarter
Jan 26
Full
Feb 3
Last Quarter
Feb 9
New

Hourly Weather History & Observations

Time (PST) Temp. Windchill Dew Point Humidity Pressure Visibility Wind Dir Wind Speed Gust Speed Precip Events Conditions
12:56 AM -0.9 °F -14.1 °F -4.0 °F 87% 30.80 in 10.0 mi ENE 6.9 mph - N/A   Clear
1:56 AM -2.0 °F -13.9 °F -6.0 °F 83% 30.82 in 10.0 mi East 5.8 mph - N/A   Clear
2:56 AM -2.9 °F -11.2 °F -6.0 °F 87% 30.81 in 10.0 mi ENE 3.5 mph - N/A   Clear
3:29 AM -2.2 °F -12.5 °F -7.6 °F 78% 30.57 in 4.0 mi East 4.6 mph - N/A   Haze
3:56 AM -4.0 °F -16.3 °F -8.0 °F 83% 30.81 in 9.0 mi ENE 5.8 mph - N/A   Partly Cloudy
4:56 AM -4.0 °F -14.6 °F -7.1 °F 87% 30.84 in 2.0 mi East 4.6 mph - N/A   Mostly Cloudy
5:24 AM -4.0 °F -12.4 °F -7.6 °F 85% 30.57 in 1.5 mi East 3.5 mph - N/A   Overcast
5:30 AM -4.0 °F -14.6 °F -7.6 °F 85% 30.57 in 3.0 mi East 4.6 mph - N/A   Overcast
5:41 AM -4.0 °F -16.3 °F -7.6 °F 85% 30.57 in 1.8 mi East 5.8 mph - N/A   Overcast
5:51 AM -5.8 °F -19.9 °F -7.6 °F 92% 30.57 in 2.5 mi ENE 6.9 mph - N/A   Overcast
5:56 AM -5.1 °F -15.8 °F -8.0 °F 87% 30.85 in 3.0 mi ENE 4.6 mph - N/A   Overcast
6:56 AM -6.0 °F -16.9 °F -9.0 °F 87% 30.91 in 6.0 mi ENE 4.6 mph - N/A   Overcast
7:46 AM -5.8 °F -19.9 °F -7.6 °F 92% 30.60 in 1.8 mi East 6.9 mph - N/A   Overcast
7:56 AM -5.1 °F -15.8 °F -7.1 °F 91% 30.91 in 4.0 mi East 4.6 mph - N/A   Overcast
8:14 AM -5.8 °F -16.7 °F -7.6 °F 92% 30.61 in 1.8 mi East 4.6 mph - N/A   Overcast
8:23 AM -4.0 °F -14.6 °F -7.6 °F 85% 30.61 in 3.0 mi East 4.6 mph - N/A   Overcast
8:56 AM -2.9 °F -11.2 °F -5.1 °F 90% 30.94 in 3.0 mi ESE 3.5 mph - N/A   Overcast
9:56 AM 1.0 °F - -0.9 °F 91% 30.91 in 4.0 mi Calm Calm - N/A   Overcast
10:07 AM 1.4 °F -6.2 °F 1.4 °F 100% 30.61 in 2.5 mi Variable 3.5 mph - N/A   Overcast
10:15 AM 1.4 °F - 1.4 °F 100% 30.61 in 4.0 mi Calm Calm - N/A   Overcast
10:38 AM 3.2 °F - 3.2 °F 100% 30.59 in 6.0 mi Calm Calm - N/A   Partly Cloudy
10:56 AM 5.0 °F - 3.0 °F 92% 30.87 in 5.0 mi Calm Calm - N/A   Partly Cloudy
11:56 AM 9.0 °F - 3.9 °F 80% 30.81 in 10.0 mi Calm Calm - N/A   Clear
12:56 PM 12.0 °F 5.9 °F 5.0 °F 73% 30.78 in 10.0 mi ESE 3.5 mph - N/A   Clear
1:56 PM 15.1 °F 7.7 °F 6.1 °F 68% 30.75 in 10.0 mi ENE 4.6 mph - N/A   Clear
2:56 PM 16.0 °F 8.8 °F 7.0 °F 68% 30.74 in 10.0 mi ENE 4.6 mph - N/A   Clear
3:56 PM 15.1 °F 9.4 °F 7.0 °F 70% 30.74 in 10.0 mi ESE 3.5 mph - N/A   Clear
4:56 PM 12.9 °F 5.2 °F 5.0 °F 71% 30.75 in 10.0 mi East 4.6 mph - N/A   Clear
5:56 PM 8.1 °F - 1.0 °F 73% 30.77 in 10.0 mi Calm Calm - N/A   Clear
6:56 PM 6.1 °F -0.9 °F 1.0 °F 80% 30.79 in 10.0 mi ENE 3.5 mph - N/A   Clear
7:56 PM 3.0 °F -6.4 °F -0.9 °F 84% 30.80 in 10.0 mi East 4.6 mph - N/A   Clear
8:56 PM 1.9 °F -7.6 °F -2.0 °F 83% 30.82 in 10.0 mi NE 4.6 mph - N/A   Clear
9:56 PM 1.0 °F -8.7 °F -4.0 °F 79% 30.79 in 10.0 mi East 4.6 mph - N/A   Clear
11:56 PM -0.9 °F - -5.1 °F 83% 30.75 in 10.0 mi Calm Calm - N/A   Clear